FENGYUN 1C DEB

Satellite information

Favourite Embed

Satellite Type and Status

DEBRISIN ORBIT

Key statistics

Satellite FENGYUN 1C DEB at a glance.

Uptime

9664

Days in orbit

Revolutions

≈ 14.1

Per day

Orbit

SSO

Sun Synchronous Orbit

Inclination

98.7

Latest

Satellite identification and parameters

Extended collection of information and parameters for FENGYUN 1C DEB.

Object identification

Identified? True

Debris? True

Object name: FENGYUN 1C DEB

International designator: 1999-025BKD

Object number (NORAD): 31199

Object ID (CCSDS): 31199

Country: PEOPLES REPUBLIC OF CHINA (PRC)

Current information (Y/N): Y

RCS size: SMALL

Orbital parameters

Period: 102.133 minutes

Inclination: 98.7094 deg

SMA: 7237.755 km

Apoapsis: 907.054 km

Periapsis: 812.186 km

RAAN: 279.3132 deg

Eccentricy: 0.0065537

Argument of periapsis: 46.9174 deg

Mean anomaly: 342.5373 deg

Mean motion: 14.09927919 rev/day

Mean motion (dot): 0.00000595 rev/day2

B* drag term: 0.00035441 1/REarth

Two-line elements (TLE)

Creation date: Oct. 22, 2025, 7:06 a.m.

Reference frame: TEME

Reference center: EARTH

Epoch: Oct. 21, 2025, 9:35 p.m. UTC

TLE line 0: 0 FENGYUN 1C DEB

TLE line 1: 1 31199U 99025BKD 25294.89978102 .00000595 00000-0 35441-3 0 9993

TLE line 2: 2 31199 98.7094 279.3132 0065537 46.9174 342.5373 14.09927919954293

Live tracking on map

Real-time ground track for satellite FENGYUN 1C DEB.

In-orbit conjunctions

A list of the most updated potential collisions computed for object FENGYUN 1C DEB.

Target Orbit TCA Probability of collision Miss distance Type
GGSE 4 LEO 2025-09-24 01:38:01 0.00012644 698.0 (m) PAYLOAD
SL-3 R/B LEO 2025-04-01 12:20:49 0.0003022806 147.0 (m) ROCKET BODY

Associated space launch

Chinese polar orbiting meteorological satellite

FENGYUN 1C DEB was lifted into orbit during the mission ‘Long March 4B | Feng Yun 1C’, on board a Long March 4B space rocket.

The launch took place on May 10, 1999, 1:33 a.m. from Launch Complex 7.

For more information about the launch, click the button.

Launch to space Long March 4B | Feng Yun 1C
Long March 4B | Feng Yun 1C

Agency: N/A

Status: Launch Successful

Launch date: May 10, 1999, 1:33 a.m. UTC

Rocket: Long March 4B

Launch pad: Launch Complex 7

Location: Taiyuan Satellite Launch Center, People's Republic of China

...

Latest news about this satellite

There are no fresh news available about this satellite. Check back as we update our databases every day.


Newsletter sign-up

Weekly statistics, charts and insights to help you stay on top of the space industry.